Погода в Нижнем

Россия / Калужская область     55°09′50″N   36°57′24″E
темп.,
°C
ветер,
м/с
пор.,
м/с
влажн.,
%
обл.,
%
осадки,
мм/ч
давл.,
гПа
погр.,
м
6 мая, чт
чт600:00+9ю31291100 0.0 1008368
03:00+7ю31196100 0.0 1007238
06:00+8ю31293100 0.0 1006340
09:00+12ю61377100 0.3 10051038
12:00+14ю7166155 0.1 10041817
15:00+15ю81557100 0.5 10031830
18:00+9юз61193100 1.4 10041039
21:00+7юз4119189 1.6 1008708
7 мая, пт
пт700:00+5юз4119699 0.0 1009490
03:00+5юз31095100 0.0 1010449
06:00+4юз311925 0.0 1011465
09:00+9зюз48630 0.0 1012939
12:00+13юз584099 0.0 10122407
15:00+14юз5104196 0.0 10122491
18:00+13ююз41058100 0.1 10121649
21:00+8ююв31178100 0.1 1012279
8 мая, сб
сб800:00+9ююв41371100 0.1 1011533
03:00+9ююв51460100 0.1 1009843
06:00+9ю51368100 0.3 1007928
09:00+7юв51495100 4.9 1005975
12:00+9ююв51196100 1.4 1003868
15:00+9юз4997100 3.6 1002715
18:00+10юз61280100 0.5 10031249
21:00+4юз61289100 0.5 1005991
9 мая, вс
вс900:00+3зюз51296100 0.0 1006966
03:00+5з5118081 0.1 10091119
06:00+4з51075100 0.1 10121123
09:00+7зсз58576 0.1 10141281
12:00+11сз574259 0.0 10162070
15:00+12сз573662 0.0 10182445
18:00+11ссз46465 0.0 10202056
21:00+5сз23660 0.0 102455
10 мая, пн
пн1000:00+3ссз22710 0.0 102616
03:00+2сз11724 0.0 102710
06:00+4ссз11695 0.0 102930
09:00+11юв11470 0.0 1029614
12:00+15сз01385 0.0 10291454
15:00+16с11355 0.0 10281633
18:00+14вюв23495 0.0 1028427
21:00+8вюв22650 0.0 102911